User: anonymous   Login
Location: Mentone
(34.5413°N, 85.5351°W)
Time: 09:34:05
(UTC-05:00)
Language:

S-56A Canister/Altair - Orbit

View from above orbital plane
View from above orbital plane
View from above satellite
View from above satellite

Ground track
Ground track

The orbit data is extracted from the following two-line orbital elements,

1 00082U 61004B   15137.65222024  .00000201  00000-0  21320-3 0  9995
2 00082 038.8536 234.6689 1172378 120.1837 252.0179 12.25697780579817
Epoch (UTC): 17 May 2015 15:39:11
Eccentricity: 0.1172378
inclination: 38.8536°
perigee height: 636 km
apogee height: 2499 km
right ascension of ascending node: 234.6689°
argument of perigee: 120.1837°
revolutions per day: 12.25697780
mean anomaly at epoch: 252.0179°
orbit number at epoch: 57981

The dashed part of the orbit path shows where the satellite is in the earth's shadow,  

DLR